Date String (YYYY-MM-DD hh:mm:ss) UTC,Instrument flags,absolute air pressure of the measurement (hPa),sample flow rate (lpm),inlet stack bypass flow (lpm),air temperature of the measurement (°C),ambient temperature measured by the external sensor (°C),aerosol sample conditioner tube jacket temperature (°C),OPC LED temperature (°C),internal box temperature (°C),relative humidity of the measurement (%),span deviation,mass concentration of particles derived from Lorenz-Mie calculation of OPC scattering (μg/m³),mass concentration of particles derived from Lorenz-Mie calculation of OPC scattering (μg/m³),mass concentration of particles derived from Lorenz-Mie calculation of OPC scattering (μg/m³)
DateTimeUTC,F1_M11,P_M11,Q1_M11,Q2_M11,T1_M11,T2_M11,T3_M11,T4_M11,T5_M11,U1_M11,ZSPAN_M11,X0_M11,X2_M11,X1_M11
2024-04-09 13:00:00,SystemResetWarning,0828.7,5.00,000.00,019.7,019.1,000.0,028.2,021.4,016.2,0000.0,0005.52,0002.42,0001.63
2024-04-09 13:01:00,SystemResetWarning,0828.7,5.00,000.00,019.7,019.1,000.0,028.2,021.3,016.2,0000.0,0005.55,0002.43,0001.62
2024-04-09 13:02:00,SystemResetWarning,0828.7,5.01,000.00,019.6,019.1,000.0,028.1,021.3,016.2,0000.0,0007.13,0002.44,0001.61
2024-04-09 13:03:00,SystemResetWarning,0828.8,5.00,000.00,019.6,019.1,000.0,028.1,021.3,016.2,0000.0,0008.27,0002.46,0001.61
2024-04-09 13:04:00,SystemResetWarning,0828.8,5.01,000.00,019.6,019.1,000.0,028.1,021.3,016.2,0000.0,0008.26,0002.43,0001.61
2024-04-09 13:05:00,SystemResetWarning,0828.8,5.01,000.00,019.6,019.1,000.0,028.1,021.3,016.2,0000.0,0007.88,0002.36,0001.59
2024-04-09 13:06:00,SystemResetWarning,0828.8,5.00,000.00,019.6,019.1,000.0,028.1,021.3,016.2,0000.0,0007.68,0002.34,0001.58
2024-04-09 13:07:00,SystemResetWarning,0828.7,5.00,000.00,019.6,019.1,000.0,028.1,021.3,016.2,0000.0,0008.02,0002.38,0001.60
2024-04-09 13:08:00,SystemResetWarning,0828.8,5.00,000.00,019.6,019.1,000.0,028.1,021.3,016.2,0000.0,0008.77,0002.42,0001.59
2024-04-09 13:09:00,SystemResetWarning,0828.8,4.99,000.00,019.6,019.1,000.0,028.1,021.3,016.3,0000.0,0009.24,0002.42,0001.57
2024-04-09 13:10:00,SystemResetWarning,0828.8,4.99,000.00,019.6,019.1,000.0,028.1,021.3,016.5,0000.0,0009.90,0002.46,0001.58
2024-04-09 13:11:00,SystemResetWarning,0828.8,5.00,000.00,019.6,019.1,000.0,028.1,021.3,016.1,0000.0,0010.10,0002.44,0001.57
2024-04-09 13:12:00,SystemResetWarning,0828.8,5.01,000.00,019.6,019.1,000.0,028.1,021.4,015.8,0000.0,0010.07,0002.44,0001.56
2024-04-09 13:13:00,SystemResetWarning,0828.8,5.00,000.00,019.6,019.1,000.0,028.1,021.3,015.6,0000.0,0009.24,0002.42,0001.56
2024-04-09 13:14:00,SystemResetWarning,0828.9,5.00,000.00,019.6,019.1,000.0,028.1,021.3,015.6,0000.0,0008.66,0002.38,0001.56
2024-04-09 13:15:00,SystemResetWarning,0829.0,4.99,000.00,019.6,019.1,000.0,028.1,021.3,015.9,0000.0,0009.10,0002.40,0001.55
2024-04-09 13:16:00,SystemResetWarning,0829.0,5.00,000.00,019.6,019.1,000.0,028.1,021.3,016.8,0000.0,0009.14,0002.37,0001.55
2024-04-09 13:17:00,SystemResetWarning,0828.9,5.00,000.00,019.6,019.1,000.0,028.1,021.3,016.9,0000.0,0009.16,0002.34,0001.55
2024-04-09 13:18:00,SystemResetWarning,0828.9,5.00,000.00,019.6,019.1,000.0,028.1,021.3,017.0,0000.0,0009.02,0002.27,0001.53
2024-04-09 13:19:00,SystemResetWarning,0828.9,5.00,000.00,019.6,019.1,000.0,028.1,021.3,016.5,0000.0,0008.46,0002.22,0001.52
2024-04-09 13:20:00,SystemResetWarning,0828.9,5.00,000.00,019.6,019.1,000.0,028.1,021.3,016.2,0000.0,0009.53,0002.19,0001.52
2024-04-09 13:21:00,SystemResetWarning,0828.9,4.99,000.00,019.6,019.1,000.0,028.1,021.4,016.3,0000.0,0008.90,0002.15,0001.51
2024-04-09 13:22:00,SystemResetWarning,0828.9,4.99,000.00,019.6,019.2,000.0,028.1,021.3,016.2,0000.0,0008.56,0002.13,0001.50
2024-04-09 13:23:00,SystemResetWarning,0828.9,5.01,000.00,019.6,019.1,000.0,028.1,021.3,016.2,0000.0,0008.71,0002.19,0001.50
2024-04-09 13:24:00,SystemResetWarning,0828.9,5.01,000.00,019.6,019.1,000.0,028.1,021.3,016.1,0000.0,0008.66,0002.18,0001.49
2024-04-09 13:25:00,SystemResetWarning,0828.9,5.00,000.00,019.6,019.1,000.0,028.1,021.4,016.3,0000.0,0008.36,0002.20,0001.48
2024-04-09 13:26:00,SystemResetWarning,0828.9,5.00,000.00,019.6,019.2,000.0,028.1,021.4,016.2,0000.0,0007.73,0002.15,0001.47
2024-04-09 13:27:00,SystemResetWarning,0829.0,4.99,000.00,019.6,019.2,000.0,028.1,021.4,015.9,0000.0,0007.79,0002.13,0001.45
2024-04-09 13:28:00,SystemResetWarning,0829.0,5.00,000.00,019.6,019.2,000.0,028.1,021.4,016.0,0000.0,0008.04,0002.15,0001.44
2024-04-09 13:29:00,SystemResetWarning,0829.0,5.00,000.00,019.6,019.2,000.0,028.1,021.4,016.4,0000.0,0008.35,0002.16,0001.44
2024-04-09 13:30:00,SystemResetWarning,0828.9,5.01,000.00,019.6,019.2,000.0,028.1,021.3,016.7,0000.0,0008.43,0002.15,0001.46
2024-04-09 13:31:00,SystemResetWarning,0828.9,5.01,000.00,019.6,019.2,000.0,028.1,021.4,016.9,0000.0,0007.10,0002.15,0001.46
2024-04-09 13:32:00,SystemResetWarning,0829.0,5.00,000.00,019.7,019.2,000.0,028.1,021.4,016.9,0000.0,0007.42,0002.12,0001.45
2024-04-09 13:33:00,SystemResetWarning,0829.0,4.99,000.00,019.7,019.2,000.0,028.1,021.4,016.9,0000.0,0007.62,0002.17,0001.46
2024-04-09 13:34:00,SystemResetWarning,0829.0,4.98,000.00,019.7,019.2,000.0,028.1,021.3,017.1,0000.0,0007.78,0002.15,0001.47
2024-04-09 13:35:00,SystemResetWarning,0828.9,5.00,000.00,019.7,019.2,000.0,028.1,021.3,017.2,0000.0,0007.73,0002.10,0001.46
2024-04-09 13:36:00,SystemResetWarning,0828.9,5.00,000.00,019.7,019.2,000.0,028.1,021.4,017.6,0000.0,0007.63,0002.05,0001.47
2024-04-09 13:37:00,SystemResetWarning,0828.8,5.01,000.00,019.7,019.2,000.0,028.1,021.4,017.6,0000.0,0009.10,0002.17,0001.47
2024-04-09 13:38:00,SystemResetWarning,0828.8,5.00,000.00,019.7,019.2,000.0,028.1,021.4,017.6,0000.0,0009.73,0002.29,0001.50
2024-04-09 13:39:00,SystemResetWarning,0828.8,5.00,000.00,019.7,019.2,000.0,028.1,021.4,017.7,0000.0,0009.67,0002.36,0001.51
2024-04-09 13:40:00,SystemResetWarning,0828.8,5.00,000.00,019.7,019.2,000.0,028.1,021.4,017.4,0000.0,0009.42,0002.41,0001.52
2024-04-09 13:41:00,SystemResetWarning,0828.8,4.99,000.00,019.7,019.2,000.0,028.1,021.4,017.5,0000.0,0009.43,0002.49,0001.54
2024-04-09 13:42:00,SystemResetWarning,0828.9,5.01,000.00,019.7,019.2,000.0,028.1,021.4,017.5,0000.0,0009.45,0002.48,0001.55
2024-04-09 13:43:00,SystemResetWarning,0828.8,5.01,000.00,019.7,019.2,000.0,028.1,021.4,017.7,0000.0,0009.02,0002.53,0001.57
2024-04-09 13:44:00,SystemResetWarning,0828.8,5.01,000.00,019.7,019.2,000.0,028.1,021.5,017.7,0000.0,0008.87,0002.54,0001.58
2024-04-09 13:45:00,SystemResetWarning,0828.7,4.99,000.00,019.7,019.3,000.0,028.1,021.4,017.3,0000.0,0008.72,0002.57,0001.59
2024-04-09 13:46:00,SystemResetWarning,0828.8,4.99,000.00,019.7,019.3,000.0,028.1,021.4,017.4,0000.0,0008.79,0002.61,0001.61
2024-04-09 13:47:00,SystemResetWarning,0828.8,4.99,000.00,019.7,019.3,000.0,028.1,021.5,017.2,0000.0,0009.04,0002.67,0001.63
2024-04-09 13:48:00,SystemResetWarning,0828.8,5.00,000.00,019.7,019.3,000.0,028.1,021.5,017.9,0000.0,0007.68,0002.59,0001.64
2024-04-09 13:49:00,SystemResetWarning,0828.7,5.01,000.00,019.7,019.3,000.0,028.1,021.5,017.7,0000.0,0007.02,0002.52,0001.65
2024-04-09 13:50:00,SystemResetWarning,0828.7,5.01,000.00,019.7,019.3,000.0,028.1,021.5,017.6,0000.0,0007.42,0002.50,0001.66
2024-04-09 13:51:00,SystemResetWarning,0828.7,5.01,000.00,019.7,019.3,000.0,028.1,021.5,017.6,0000.0,0007.97,0002.48,0001.67
2024-04-09 13:52:00,SystemResetWarning,0828.7,5.00,000.00,019.7,019.3,000.0,028.1,021.5,017.1,0000.0,0008.07,0002.42,0001.67
2024-04-09 13:53:00,SystemResetWarning,0828.6,4.99,000.00,019.8,019.3,000.0,028.1,021.5,017.5,0000.0,0008.82,0002.43,0001.68
2024-04-09 13:54:00,SystemResetWarning,0828.7,5.00,000.00,019.8,019.3,000.0,028.1,021.5,017.7,0000.0,0010.17,0002.42,0001.69
2024-04-09 13:55:00,SystemResetWarning,0828.6,5.00,000.00,019.8,019.3,000.0,028.1,021.5,018.0,0000.0,0011.14,0002.41,0001.71
2024-04-09 13:56:00,SystemResetWarning,0828.6,5.00,000.00,019.8,019.4,000.0,028.2,021.5,017.7,0000.0,0011.63,0002.38,0001.71
2024-04-09 13:57:00,SystemResetWarning,0828.6,5.01,000.00,019.8,019.4,000.0,028.2,021.6,017.6,0000.0,0011.57,0002.40,0001.71
2024-04-09 13:58:00,SystemResetWarning,0828.6,5.00,000.00,019.8,019.4,000.0,028.2,021.6,017.0,0000.0,0011.38,0002.40,0001.71
2024-04-09 13:59:00,SystemResetWarning,0828.6,5.00,000.00,019.8,019.4,000.0,028.2,021.6,017.5,0000.0,0011.24,0002.41,0001.73
